This is the latest recevied weather packets stored in our database for station/object IW7DVM-13. If no packets are shown the sender has not sent any weather packets the latest 10 day(s).
| Time | Temp. | Humidity | Pressure | Rain* | Wind** | Luminosity | Snow |
|---|---|---|---|---|---|---|---|
| 1787484603 | 34.44° C | 49% | 1009.4 hPa | 0 mm | - | - | - |
| 1787484303 | 33.89° C | 46% | 1009.4 hPa | 0 mm | - | - | - |
| 1787484003 | 33.89° C | 45% | 1009.3 hPa | 0 mm | - | - | - |
| 1787483703 | 34.44° C | 44% | 1009.3 hPa | 0 mm | - | - | - |
| 1787483403 | 33.33° C | 46% | 1009.3 hPa | 0 mm | - | - | - |
| 1787483103 | 33.33° C | 46% | 1009.3 hPa | 0 mm | - | - | - |
| 1787482803 | 33.89° C | 44% | 1009.3 hPa | 0 mm | - | - | - |
| 1787482503 | 33.33° C | 49% | 1009.4 hPa | 0 mm | - | - | - |
| 1787482203 | 33.33° C | 50% | 1009.4 hPa | 0 mm | - | - | - |
| 1787481903 | 33.33° C | 45% | 1009.3 hPa | 0 mm | - | - | - |
| 1787481603 | 33.89° C | 43% | 1009.4 hPa | 0 mm | - | - | - |
| 1787481303 | 33.89° C | 42% | 1009.4 hPa | 0 mm | - | - | - |
| 1787481003 | 33.33° C | 44% | 1009.5 hPa | 0 mm | - | - | - |
| 1787480703 | 32.78° C | 44% | 1009.5 hPa | 0 mm | - | - | - |
| 1787480403 | 32.78° C | 52% | 1009.6 hPa | 0 mm | - | - | - |
| 1787480103 | 33.33° C | 52% | 1009.7 hPa | 0 mm | - | - | - |
| 1787479803 | 32.78° C | 49% | 1009.6 hPa | 0 mm | - | - | - |
| 1787479503 | 33.33° C | 49% | 1009.6 hPa | 0 mm | - | - | - |
| 1787479203 | 33.33° C | 46% | 1009.5 hPa | 0 mm | - | - | - |
| 1787478903 | 33.33° C | 47% | 1009.6 hPa | 0 mm | - | - | - |
| 1787478603 | 33.33° C | 51% | 1009.6 hPa | 0 mm | - | - | - |
| 1787478303 | 33.33° C | 53% | 1009.6 hPa | 0 mm | - | - | - |
| 1787478003 | 33.33° C | 53% | 1009.6 hPa | 0 mm | - | - | - |
| 1787477703 | 33.33° C | 52% | 1009.7 hPa | 0 mm | - | - | - |
| 1787477403 | 33.33° C | 49% | 1009.8 hPa | 0 mm | - | - | - |
* Rain latest hour (hover to see other rain measurements)
** Current wind speed in m/s (hover to see current wind gust speed)